BEIDOU-3 M14 (C33)

Last updated on Aug. 15, 2020, 5:35 a.m. UTC

1 43623U 18072B   20227.34939745 -.00000027  00000-0  00000+0 0  9992
2 43623  55.1582 133.9597 0005711 318.4842 214.5101  1.86232019 12938
UTC
Height (km)
Latitude
Longitude
Inclination
Orbital Period
UTC large
Height (km)
Speed (km/s)
/
Latitude / Longitude
Inclination (degrees)
Orbital Period (minutes)
Azimuth
Elevation
Range (km)
Doppler Factor
iOS Compass Heading
iOS Angle

Next 30 passes for location: Hong Kong

Rise time Rise Azimuth (degrees) Set time Set Azimuth (degrees) Duration Max altitude (degrees)

No matching passes for this satellites